Miscellaneous Local Product
Issued by NWS Hastings, NE

Home | Current Version | Previous Version | Graphics & Text | Print | Product List | Glossary On
Versions: 1 2 3 4 5 6 7 8 9 10 11 12 13 14 15 16 17 18 19 20 21 22 23 24 25 26 27 28 29 30 31 32 33 34 35 36 37 38 39 40 41 42 43 44 45 46 47 48 49 50
000
AXUS43 KGID 240102
MISGRI

GID CWA HOURLY WEATHER ROUNDUP
NATIONAL WEATHER SERVICE HASTINGS NE
800 PM CDT WED JUL 23 2014

NOTE: "FAIR" INDICATES FEW OR NO CLOUDS BELOW 12,000 FEET WITH NO
SIGNIFICANT WEATHER AND/OR OBSTRUCTIONS TO VISIBILITY.

...SOUTH CENTRAL NEBRASKA...

CITY           SKY/WX    TMP DP  RH WIND       PRES   REMARKS
GRAND ISLAND   CLEAR     78  61  55 E5        30.17S
HASTINGS       CLEAR     79  58  48 E7        30.17S
KEARNEY        CLEAR     79  63  57 E10       30.18S
ORD            CLEAR     78  60  53 E9        30.16S
YORK           CLEAR     77  64  65 NE6       30.16S
AURORA         CLEAR     78  62  58 E3        30.16S
LEXINGTON      SUNNY     79  62  55 SE13      30.17F
HOLDREGE       CLEAR     78  65  64 E7        30.17S
HEBRON         CLEAR     80  59  48 E6        30.15R

...NEBRASKA PANHANDLE...

CITY           SKY/WX    TMP DP  RH WIND       PRES   REMARKS
CHADRON        SUNNY     93  64  38 S18       30.05F HX  94
ALLIANCE       SUNNY     90  62  39 S13       30.12F HX  90
SCOTTSBLUFF    CLOUDY    89  67  47 SE8       30.11F HX  92
SIDNEY         MOSUNNY   91  61  36 S17G24    30.17S HX  91

...WESTERN AND NORTH CENTRAL NEBRASKA...

CITY           SKY/WX    TMP DP  RH WIND       PRES   REMARKS
VALENTINE      SUNNY     83  57  41 SE17      30.13F
AINSWORTH      SUNNY     80  56  43 SE12      30.16F
ONEILL         CLEAR     79  56  46 E10       30.17S
BROKEN BOW     SUNNY     78  61  55 SE12G21   30.18S
IMPERIAL       SUNNY     81  63  54 SE17      30.16R
NORTH PLATTE   SUNNY     78  63  59 SE16      30.16R
MCCOOK         SUNNY     79  65  62 E14       30.15S

...EASTERN NEBRASKA...

CITY           SKY/WX    TMP DP  RH WIND       PRES   REMARKS
NORFOLK        CLEAR     78  59  51 E6        30.16S
SO SIOUX CITY  CLEAR     79  58  48 NE7       30.15S
TEKAMAH        CLEAR     80  62  54 E7        30.14F
COLUMBUS       CLEAR     79  59  50 NE5       30.16R
ALBION         CLEAR     77  57  50 E6        30.17S
OMAHA EPPLEY   CLEAR     81  60  48 NE8       30.14S
OFFUTT AFB     CLEAR     79  63  57 NE5       30.13S
MILLARD        CLEAR     81  61  50 NE5       30.13R
LINCOLN        CLEAR     82  60  47 NE9       30.14R
NEBRASKA CITY  CLEAR     77  63  61 NE3       30.13S
BEATRICE       CLEAR     79  62  56 E6        30.13R HAZE
FALLS CITY     CLEAR     80  66  62 NE5       30.11S

...NORTHERN KANSAS...

CITY           SKY/WX    TMP DP  RH WIND       PRES   REMARKS
GOODLAND       SUNNY     84  62  47 S8        30.18S
HILL CITY      CLEAR     83  65  54 E13       30.14S
NORTON         CLEAR     79  59  50 E9        30.14F
PHILLIPSBURG   CLEAR     82  61  47 E8        30.15F
SMITH CENTER   CLEAR     81  64  57 NE6       30.15S
HAYS           CLEAR     82  61  47 E12       30.13R
RUSSELL        CLEAR     83  65  54 NE8       30.11R
CONCORDIA      CLEAR     83  60  45 E7        30.13R
SALINA         CLEAR     89  59  36 E9        30.10R
TOPEKA         CLEAR     84  64  50 NE9       30.10R



USA.gov is the U.S. government's official web portal to all federal, state and local government web resources and services.